Time,TemperatureF,DewpointF,PressureIn,WindDirection,WindDirectionDegrees,WindSpeedMPH,WindSpeedGustMPH,Humidity,HourlyPrecipIn,Conditions,Clouds,dailyrainin,SoftwareType,DateUTC
2013-03-12 00:00:00,51.5,51.5,29.85,NW,305,0.0,0.0,100,0.24,,OVC055,0.00,VWS V14.01,2013-03-12 04:00:00,
2013-03-12 00:05:00,51.6,51.6,29.84,NW,305,0.0,0.0,100,0.27,,OVC055,0.03,VWS V14.01,2013-03-12 04:05:00,
2013-03-12 00:10:00,51.7,51.7,29.84,NW,305,0.0,0.0,100,0.29,,OVC055,0.05,VWS V14.01,2013-03-12 04:10:00,
2013-03-12 00:15:00,51.5,51.5,29.84,NW,305,0.0,0.0,100,0.31,,OVC055,0.07,VWS V14.01,2013-03-12 04:15:00,
2013-03-12 00:20:00,51.5,51.5,29.84,NW,305,0.0,0.0,100,0.31,,OVC055,0.07,VWS V14.01,2013-03-12 04:20:00,
2013-03-12 00:25:00,51.4,51.4,29.84,NW,305,0.0,0.0,100,0.32,,OVC055,0.08,VWS V14.01,2013-03-12 04:25:00,
2013-03-12 00:30:00,51.4,51.4,29.84,NW,305,0.0,0.0,100,0.24,,OVC055,0.08,VWS V14.01,2013-03-12 04:30:00,
2013-03-12 00:35:00,51.4,51.4,29.83,NW,305,0.0,0.0,100,0.25,,OVC055,0.09,VWS V14.01,2013-03-12 04:35:00,
2013-03-12 00:40:00,51.4,51.4,29.84,NW,305,0.0,0.0,100,0.27,,OVC055,0.11,VWS V14.01,2013-03-12 04:40:00,
2013-03-12 00:45:00,51.4,51.4,29.83,NW,305,0.0,0.0,100,0.27,,OVC055,0.11,VWS V14.01,2013-03-12 04:45:00,
2013-03-12 00:50:00,51.5,51.5,29.82,NW,305,0.0,0.0,100,0.27,,OVC055,0.11,VWS V14.01,2013-03-12 04:50:00,
2013-03-12 00:55:00,51.4,51.4,29.82,NW,305,0.0,0.0,100,0.27,,OVC055,0.11,VWS V14.01,2013-03-12 04:55:00,
2013-03-12 01:00:00,51.4,51.4,29.82,NW,305,0.0,0.0,100,0.11,,OVC055,0.11,VWS V14.01,2013-03-12 05:00:00,
2013-03-12 01:05:00,51.4,51.4,29.81,NW,305,0.0,0.0,100,0.12,,OVC055,0.12,VWS V14.01,2013-03-12 05:05:00,
2013-03-12 01:10:00,51.4,51.4,29.81,NW,305,0.0,0.0,100,0.12,,OVC055,0.12,VWS V14.01,2013-03-12 05:10:00,
2013-03-12 01:15:00,51.3,51.3,29.81,NW,305,0.0,0.0,100,0.13,,OVC055,0.13,VWS V14.01,2013-03-12 05:15:00,
2013-03-12 01:20:00,51.3,51.3,29.81,NW,305,0.0,0.0,100,0.13,,OVC055,0.13,VWS V14.01,2013-03-12 05:20:00,
2013-03-12 01:25:00,51.3,51.3,29.80,NW,305,0.0,0.0,100,0.13,,OVC055,0.13,VWS V14.01,2013-03-12 05:25:00,
2013-03-12 01:30:00,51.2,51.2,29.80,NW,305,0.0,0.0,100,0.05,,OVC055,0.13,VWS V14.01,2013-03-12 05:30:00,
2013-03-12 01:35:00,51.2,51.2,29.80,NW,305,0.0,0.0,100,0.05,,OVC055,0.13,VWS V14.01,2013-03-12 05:35:00,
2013-03-12 01:40:00,51.2,51.2,29.80,NW,305,1.0,1.0,100,0.05,,OVC055,0.13,VWS V14.01,2013-03-12 05:40:00,
2013-03-12 01:45:00,51.2,51.2,29.80,NW,305,0.0,1.0,100,0.06,,OVC055,0.14,VWS V14.01,2013-03-12 05:45:00,
2013-03-12 01:50:00,51.2,51.2,29.79,NW,305,0.0,1.0,100,0.07,,OVC055,0.15,VWS V14.01,2013-03-12 05:50:00,
2013-03-12 01:55:00,51.3,51.3,29.79,NW,305,0.0,1.0,100,0.07,,OVC055,0.15,VWS V14.01,2013-03-12 05:55:00,
2013-03-12 02:00:00,51.3,51.3,29.79,NW,305,0.0,0.0,100,0.05,,OVC055,0.16,VWS V14.01,2013-03-12 06:00:00,
2013-03-12 02:05:00,51.3,51.3,29.79,NW,305,0.0,1.0,100,0.05,,OVC055,0.16,VWS V14.01,2013-03-12 06:05:00,
2013-03-12 02:10:00,51.2,51.2,29.79,NW,305,0.0,1.0,100,0.06,,OVC055,0.17,VWS V14.01,2013-03-12 06:10:00,
2013-03-12 02:15:00,51.2,51.2,29.79,NW,305,0.0,1.0,100,0.07,,OVC055,0.18,VWS V14.01,2013-03-12 06:15:00,
2013-03-12 02:20:00,51.1,51.1,29.79,NW,305,0.0,1.0,100,0.08,,OVC055,0.19,VWS V14.01,2013-03-12 06:20:00,
2013-03-12 02:25:00,51.2,51.2,29.79,NW,305,0.0,1.0,100,0.08,,OVC055,0.19,VWS V14.01,2013-03-12 06:25:00,
2013-03-12 02:30:00,51.2,51.2,29.79,NW,305,0.0,0.0,100,0.06,,OVC055,0.19,VWS V14.01,2013-03-12 06:30:00,
2013-03-12 02:35:00,51.2,51.2,29.79,NW,305,0.0,0.0,100,0.07,,OVC055,0.20,VWS V14.01,2013-03-12 06:35:00,
2013-03-12 02:40:00,51.2,51.2,29.78,NW,305,0.0,0.0,100,0.07,,OVC055,0.20,VWS V14.01,2013-03-12 06:40:00,
2013-03-12 02:44:00,51.2,51.2,29.79,NW,305,0.0,0.0,100,0.07,,OVC055,0.20,VWS V14.01,2013-03-12 06:44:00,
2013-03-12 02:49:00,51.1,51.1,29.79,NW,305,0.0,0.0,100,0.07,,OVC055,0.20,VWS V14.01,2013-03-12 06:49:00,
2013-03-12 02:54:00,51.1,51.1,29.79,NW,305,0.0,0.0,100,0.07,,OVC055,0.20,VWS V14.01,2013-03-12 06:54:00,
2013-03-12 02:59:00,51.1,51.1,29.78,NW,305,0.0,0.0,100,0.04,,OVC055,0.20,VWS V14.01,2013-03-12 06:59:00,
2013-03-12 03:00:00,51.1,51.1,29.78,NW,305,0.0,0.0,100,0.07,,OVC055,0.20,VWS V14.01,2013-03-12 07:00:00,
2013-03-12 03:04:00,51.0,51.0,29.78,NW,305,0.0,0.0,100,0.05,,OVC055,0.21,VWS V14.01,2013-03-12 07:04:00,
2013-03-12 03:09:00,51.0,51.0,29.78,NW,305,0.0,0.0,100,0.05,,OVC055,0.21,VWS V14.01,2013-03-12 07:09:00,
2013-03-12 03:14:00,51.1,51.1,29.78,NW,314,1.0,1.0,100,0.09,,OVC055,0.25,VWS V14.01,2013-03-12 07:14:00,
2013-03-12 03:19:00,51.2,51.2,29.78,NW,307,1.0,1.0,100,0.09,,OVC055,0.25,VWS V14.01,2013-03-12 07:19:00,
2013-03-12 03:24:00,51.1,51.1,29.78,NW,307,0.0,1.0,100,0.10,,OVC055,0.26,VWS V14.01,2013-03-12 07:24:00,
2013-03-12 03:29:00,51.1,51.1,29.78,NW,307,2.0,2.0,100,0.07,,OVC055,0.26,VWS V14.01,2013-03-12 07:29:00,
2013-03-12 03:30:00,51.1,51.1,29.78,NW,307,1.0,1.0,100,0.10,,OVC055,0.26,VWS V14.01,2013-03-12 07:30:00,
2013-03-12 03:34:00,51.3,51.3,29.78,NW,306,0.0,2.0,100,0.08,,OVC055,0.27,VWS V14.01,2013-03-12 07:34:00,
2013-03-12 03:39:00,51.4,51.4,29.78,South,170,2.0,3.0,100,0.08,,OVC055,0.27,VWS V14.01,2013-03-12 07:39:00,
2013-03-12 03:44:00,51.3,51.3,29.78,South,170,0.0,3.0,100,0.10,,OVC055,0.29,VWS V14.01,2013-03-12 07:44:00,
2013-03-12 03:49:00,51.3,51.3,29.78,South,170,0.0,3.0,100,0.11,,OVC055,0.30,VWS V14.01,2013-03-12 07:49:00,
2013-03-12 03:54:00,51.4,51.4,29.78,South,170,0.0,3.0,100,0.12,,OVC055,0.31,VWS V14.01,2013-03-12 07:54:00,
2013-03-12 03:59:00,51.5,51.5,29.77,South,170,0.0,0.0,100,0.11,,OVC055,0.31,VWS V14.01,2013-03-12 07:59:00,
2013-03-12 04:00:00,51.4,51.4,29.77,South,170,0.0,3.0,100,0.12,,OVC055,0.31,VWS V14.01,2013-03-12 08:00:00,
2013-03-12 04:04:00,51.5,51.5,29.78,South,170,0.0,0.0,100,0.12,,OVC055,0.32,VWS V14.01,2013-03-12 08:04:00,
2013-03-12 04:09:00,51.5,51.5,29.77,South,170,0.0,0.0,100,0.12,,OVC055,0.32,VWS V14.01,2013-03-12 08:09:00,
2013-03-12 04:14:00,51.6,51.6,29.77,South,170,0.0,0.0,100,0.13,,OVC055,0.33,VWS V14.01,2013-03-12 08:14:00,
2013-03-12 04:19:00,51.6,51.6,29.77,South,170,0.0,0.0,100,0.13,,OVC055,0.33,VWS V14.01,2013-03-12 08:19:00,
2013-03-12 04:24:00,51.6,51.6,29.77,South,170,0.0,0.0,100,0.13,,OVC055,0.33,VWS V14.01,2013-03-12 08:24:00,
2013-03-12 04:29:00,51.6,51.6,29.77,South,170,0.0,0.0,100,0.07,,OVC055,0.33,VWS V14.01,2013-03-12 08:29:00,
2013-03-12 04:30:00,51.6,51.6,29.77,South,170,0.0,0.0,100,0.13,,OVC055,0.33,VWS V14.01,2013-03-12 08:30:00,
2013-03-12 04:34:00,51.6,51.6,29.77,South,170,0.0,1.0,100,0.07,,OVC055,0.33,VWS V14.01,2013-03-12 08:34:00,
2013-03-12 04:39:00,51.7,51.7,29.76,South,170,0.0,1.0,100,0.07,,OVC055,0.33,VWS V14.01,2013-03-12 08:39:00,
2013-03-12 04:44:00,51.8,51.8,29.77,South,170,0.0,1.0,100,0.07,,OVC055,0.33,VWS V14.01,2013-03-12 08:44:00,
2013-03-12 04:49:00,51.8,51.8,29.77,South,170,0.0,1.0,100,0.07,,OVC055,0.33,VWS V14.01,2013-03-12 08:49:00,
2013-03-12 04:54:00,51.8,51.8,29.77,South,170,0.0,1.0,100,0.07,,OVC055,0.33,VWS V14.01,2013-03-12 08:54:00,
2013-03-12 04:59:00,51.9,51.9,29.77,South,170,0.0,0.0,100,0.02,,OVC055,0.33,VWS V14.01,2013-03-12 08:59:00,
2013-03-12 05:00:00,51.8,51.8,29.77,South,170,0.0,1.0,100,0.07,,OVC055,0.33,VWS V14.01,2013-03-12 09:00:00,
2013-03-12 05:04:00,51.9,51.9,29.77,South,170,0.0,1.0,100,0.02,,OVC055,0.33,VWS V14.01,2013-03-12 09:04:00,
2013-03-12 05:09:00,52.1,52.1,29.76,South,170,0.0,2.0,100,0.02,,OVC055,0.33,VWS V14.01,2013-03-12 09:09:00,
2013-03-12 05:14:00,52.1,52.1,29.76,South,170,0.0,2.0,100,0.02,,OVC055,0.33,VWS V14.01,2013-03-12 09:14:00,
2013-03-12 05:19:00,52.1,52.1,29.76,South,170,1.0,2.0,100,0.02,,OVC055,0.33,VWS V14.01,2013-03-12 09:19:00,
2013-03-12 05:24:00,51.8,51.8,29.76,South,170,0.0,2.0,100,0.02,,OVC055,0.33,VWS V14.01,2013-03-12 09:24:00,
2013-03-12 05:29:00,51.5,51.5,29.77,South,170,0.0,0.0,100,0.00,,OVC055,0.33,VWS V14.01,2013-03-12 09:29:00,
2013-03-12 05:30:00,51.5,51.5,29.77,South,170,0.0,2.0,100,0.02,,OVC055,0.33,VWS V14.01,2013-03-12 09:30:00,
2013-03-12 05:34:00,51.4,51.4,29.77,South,170,0.0,0.0,100,0.00,,OVC055,0.33,VWS V14.01,2013-03-12 09:34:00,
2013-03-12 05:39:00,51.3,51.3,29.77,South,170,0.0,0.0,100,0.00,,OVC055,0.33,VWS V14.01,2013-03-12 09:39:00,
2013-03-12 05:44:00,51.2,51.2,29.77,South,170,0.0,0.0,100,0.00,,OVC055,0.33,VWS V14.01,2013-03-12 09:44:00,
2013-03-12 05:49:00,51.0,51.0,29.78,South,170,0.0,0.0,100,0.00,,OVC055,0.33,VWS V14.01,2013-03-12 09:49:00,
2013-03-12 05:54:00,50.9,50.9,29.78,South,170,0.0,0.0,100,0.00,,OVC055,0.33,VWS V14.01,2013-03-12 09:54:00,
2013-03-12 05:59:00,50.6,50.6,29.78,South,170,0.0,0.0,100,0.00,,OVC055,0.33,VWS V14.01,2013-03-12 09:59:00,
2013-03-12 06:00:00,50.6,50.6,29.78,South,170,0.0,0.0,100,0.00,,OVC055,0.33,VWS V14.01,2013-03-12 10:00:00,
2013-03-12 06:04:00,50.4,50.4,29.78,South,170,0.0,0.0,100,0.00,,OVC055,0.33,VWS V14.01,2013-03-12 10:04:00,
2013-03-12 06:09:00,49.8,49.8,29.78,North,10,7.0,8.0,100,0.00,,OVC055,0.33,VWS V14.01,2013-03-12 10:09:00,
2013-03-12 06:14:00,49.2,49.2,29.78,North,9,5.0,8.0,100,0.00,,OVC055,0.33,VWS V14.01,2013-03-12 10:14:00,
2013-03-12 06:19:00,48.4,48.4,29.79,NNE,17,4.0,8.0,100,0.00,,OVC055,0.33,VWS V14.01,2013-03-12 10:19:00,
2013-03-12 06:24:00,47.9,47.9,29.79,North,351,5.0,8.0,100,0.00,,OVC055,0.33,VWS V14.01,2013-03-12 10:24:00,
2013-03-12 06:29:00,47.2,46.9,29.80,North,355,2.0,9.0,99,0.00,,OVC055,0.33,VWS V14.01,2013-03-12 10:29:00,
2013-03-12 06:30:00,47.2,46.9,29.80,North,355,2.0,9.0,99,0.00,,OVC055,0.33,VWS V14.01,2013-03-12 10:30:00,
2013-03-12 06:34:00,46.6,46.3,29.80,North,9,6.0,9.0,99,0.00,,OVC055,0.33,VWS V14.01,2013-03-12 10:34:00,
2013-03-12 06:39:00,46.2,45.9,29.80,NNW,338,6.0,9.0,99,0.00,,OVC055,0.33,VWS V14.01,2013-03-12 10:39:00,
2013-03-12 06:44:00,45.9,45.6,29.80,North,360,2.0,9.0,99,0.00,,OVC055,0.33,VWS V14.01,2013-03-12 10:44:00,
2013-03-12 06:49:00,45.6,45.3,29.80,NNW,346,6.0,10.0,99,0.00,,OVC055,0.33,VWS V14.01,2013-03-12 10:49:00,
2013-03-12 06:54:00,45.2,44.9,29.80,NNW,328,3.0,12.0,99,0.00,,OVC055,0.33,VWS V14.01,2013-03-12 10:54:00,
2013-03-12 06:59:00,45.0,44.7,29.80,NNW,336,7.0,12.0,99,0.00,,OVC055,0.33,VWS V14.01,2013-03-12 10:59:00,
2013-03-12 07:00:00,45.0,44.7,29.80,North,355,7.0,12.0,99,0.00,,OVC055,0.33,VWS V14.01,2013-03-12 11:00:00,
2013-03-12 07:04:00,44.9,44.6,29.80,NNE,30,3.0,8.0,99,0.00,,OVC055,0.33,VWS V14.01,2013-03-12 11:04:00,
2013-03-12 07:09:00,44.6,44.3,29.80,North,360,5.0,9.0,99,0.00,,OVC055,0.33,VWS V14.01,2013-03-12 11:09:00,
2013-03-12 07:14:00,44.5,44.2,29.80,North,349,6.0,9.0,99,0.00,,OVC055,0.33,VWS V14.01,2013-03-12 11:14:00,
2013-03-12 07:19:00,44.3,44.0,29.81,NNW,346,4.0,9.0,99,0.00,,OVC055,0.33,VWS V14.01,2013-03-12 11:19:00,
2013-03-12 07:24:00,44.2,43.9,29.81,North,5,5.0,10.0,99,0.00,,OVC055,0.33,VWS V14.01,2013-03-12 11:24:00,
2013-03-12 07:29:00,44.0,43.7,29.81,NNW,343,3.0,10.0,99,0.00,,OVC055,0.33,VWS V14.01,2013-03-12 11:29:00,
2013-03-12 07:30:00,44.0,43.7,29.81,NNW,344,4.0,10.0,99,0.00,,OVC055,0.33,VWS V14.01,2013-03-12 11:30:00,
2013-03-12 07:34:00,43.8,43.5,29.82,NE,53,4.0,12.0,99,0.00,,OVC055,0.33,VWS V14.01,2013-03-12 11:34:00,
2013-03-12 07:39:00,43.7,43.4,29.82,North,5,6.0,12.0,99,0.00,,OVC055,0.33,VWS V14.01,2013-03-12 11:39:00,
2013-03-12 07:44:00,43.6,43.3,29.83,North,355,9.0,12.0,99,0.00,,OVC055,0.33,VWS V14.01,2013-03-12 11:44:00,
2013-03-12 07:49:00,43.4,43.1,29.83,North,5,6.0,12.0,99,0.00,,OVC055,0.33,VWS V14.01,2013-03-12 11:49:00,
2013-03-12 07:54:00,43.2,42.9,29.83,North,11,7.0,12.0,99,0.00,,OVC055,0.33,VWS V14.01,2013-03-12 11:54:00,
2013-03-12 07:59:00,43.1,42.6,29.83,NNE,22,4.0,12.0,98,0.00,,OVC055,0.33,VWS V14.01,2013-03-12 11:59:00,
2013-03-12 08:00:00,43.1,42.6,29.83,NE,34,5.0,12.0,98,0.00,,OVC055,0.33,VWS V14.01,2013-03-12 12:00:00,
2013-03-12 08:04:00,43.0,42.7,29.83,NNE,15,4.0,6.0,99,0.00,,OVC055,0.33,VWS V14.01,2013-03-12 12:04:00,
2013-03-12 08:09:00,42.9,42.6,29.84,North,360,4.0,6.0,99,0.00,,OVC055,0.33,VWS V14.01,2013-03-12 12:09:00,
2013-03-12 08:14:00,42.9,42.6,29.85,North,9,6.0,7.0,99,0.00,,OVC055,0.33,VWS V14.01,2013-03-12 12:14:00,
2013-03-12 08:19:00,42.8,42.5,29.85,NNE,15,6.0,7.0,99,0.00,,OVC055,0.33,VWS V14.01,2013-03-12 12:19:00,
2013-03-12 08:24:00,42.7,42.4,29.86,North,355,6.0,9.0,99,0.00,,OVC055,0.33,VWS V14.01,2013-03-12 12:24:00,
2013-03-12 08:29:00,42.5,42.2,29.87,North,5,2.0,9.0,99,0.00,,OVC055,0.33,VWS V14.01,2013-03-12 12:29:00,
2013-03-12 08:30:00,42.5,42.2,29.87,NNW,348,3.0,9.0,99,0.00,,OVC055,0.33,VWS V14.01,2013-03-12 12:30:00,
2013-03-12 08:34:00,42.4,42.1,29.87,NNE,12,4.0,7.0,99,0.00,,OVC055,0.33,VWS V14.01,2013-03-12 12:34:00,
2013-03-12 08:39:00,42.3,42.0,29.88,NNE,12,4.0,7.0,99,0.00,,OVC055,0.33,VWS V14.01,2013-03-12 12:39:00,
2013-03-12 08:44:00,42.2,41.9,29.87,NE,38,5.0,7.0,99,0.00,,OVC055,0.33,VWS V14.01,2013-03-12 12:44:00,
2013-03-12 08:49:00,42.3,42.0,29.88,NNE,19,3.0,7.0,99,0.00,,OVC055,0.33,VWS V14.01,2013-03-12 12:49:00,
2013-03-12 08:54:00,42.4,42.1,29.88,NE,35,2.0,7.0,99,0.00,,OVC055,0.33,VWS V14.01,2013-03-12 12:54:00,
2013-03-12 08:59:00,42.4,42.4,29.88,North,355,4.0,7.0,100,0.00,,OVC055,0.33,VWS V14.01,2013-03-12 12:59:00,
2013-03-12 09:00:00,42.4,42.4,29.88,North,5,4.0,7.0,100,0.00,,OVC055,0.33,VWS V14.01,2013-03-12 13:00:00,
2013-03-12 09:04:00,42.4,42.4,29.88,North,5,1.0,4.0,100,0.00,,OVC055,0.33,VWS V14.01,2013-03-12 13:04:00,
2013-03-12 09:09:00,42.5,42.5,29.89,North,5,3.0,6.0,100,0.00,,OVC055,0.33,VWS V14.01,2013-03-12 13:09:00,
2013-03-12 09:14:00,42.4,42.4,29.89,NNW,345,5.0,7.0,100,0.00,,OVC055,0.33,VWS V14.01,2013-03-12 13:14:00,
2013-03-12 09:19:00,42.3,42.0,29.89,NNE,20,5.0,8.0,99,0.00,,OVC055,0.33,VWS V14.01,2013-03-12 13:19:00,
2013-03-12 09:24:00,42.2,41.9,29.90,North,350,4.0,8.0,99,0.00,,OVC055,0.33,VWS V14.01,2013-03-12 13:24:00,
2013-03-12 09:29:00,42.1,41.8,29.90,North,355,4.0,8.0,99,0.00,,OVC055,0.33,VWS V14.01,2013-03-12 13:29:00,
2013-03-12 09:30:00,42.1,41.8,29.90,North,360,4.0,8.0,99,0.00,,OVC055,0.33,VWS V14.01,2013-03-12 13:30:00,
2013-03-12 09:34:00,42.2,41.9,29.90,North,5,2.0,7.0,99,0.00,,OVC055,0.33,VWS V14.01,2013-03-12 13:34:00,
2013-03-12 09:38:00,42.2,41.9,29.90,NE,37,11.0,11.0,99,0.00,,OVC055,0.33,VWS V14.01,2013-03-12 13:38:00,
2013-03-12 09:43:00,42.2,41.7,29.90,NE,40,2.0,11.0,98,0.00,,OVC055,0.33,VWS V14.01,2013-03-12 13:43:00,
2013-03-12 09:48:00,42.3,41.8,29.89,ENE,63,1.0,11.0,98,0.00,,OVC055,0.33,VWS V14.01,2013-03-12 13:48:00,
2013-03-12 09:53:00,42.4,41.9,29.89,ENE,68,2.0,11.0,98,0.00,,OVC055,0.33,VWS V14.01,2013-03-12 13:53:00,
2013-03-12 09:58:00,42.4,41.6,29.90,NE,45,5.0,11.0,97,0.00,,OVC055,0.33,VWS V14.01,2013-03-12 13:58:00,
2013-03-12 10:00:00,42.4,41.6,29.90,NE,53,1.0,11.0,97,0.00,,OVC055,0.33,VWS V14.01,2013-03-12 14:00:00,
2013-03-12 10:03:00,42.6,42.1,29.90,ENE,59,1.0,4.0,98,0.00,,OVC055,0.33,VWS V14.01,2013-03-12 14:03:00,
2013-03-12 10:08:00,42.5,41.4,29.90,East,83,2.0,8.0,96,0.00,,OVC055,0.33,VWS V14.01,2013-03-12 14:08:00,
2013-03-12 10:13:00,42.6,41.8,29.90,NE,49,3.0,8.0,97,0.00,,OVC055,0.33,VWS V14.01,2013-03-12 14:13:00,
2013-03-12 10:18:00,42.8,42.0,29.90,NNE,28,5.0,8.0,97,0.00,,OVC055,0.33,VWS V14.01,2013-03-12 14:18:00,
2013-03-12 10:23:00,42.8,41.7,29.90,NNE,30,3.0,8.0,96,0.00,,OVC055,0.33,VWS V14.01,2013-03-12 14:23:00,
2013-03-12 10:28:00,42.8,41.7,29.90,NE,40,4.0,8.0,96,0.00,,OVC055,0.33,VWS V14.01,2013-03-12 14:28:00,
2013-03-12 10:30:00,42.8,41.7,29.90,NNE,26,4.0,8.0,96,0.00,,OVC055,0.33,VWS V14.01,2013-03-12 14:30:00,
2013-03-12 10:33:00,42.8,41.5,29.90,NE,36,6.0,8.0,95,0.00,,OVC055,0.33,VWS V14.01,2013-03-12 14:33:00,
2013-03-12 10:38:00,42.9,41.6,29.91,NNE,29,5.0,8.0,95,0.00,,OVC055,0.33,VWS V14.01,2013-03-12 14:38:00,
2013-03-12 10:43:00,42.8,41.5,29.91,NE,40,4.0,8.0,95,0.00,,OVC055,0.33,VWS V14.01,2013-03-12 14:43:00,
2013-03-12 10:48:00,42.8,41.2,29.91,NNE,32,6.0,9.0,94,0.00,,OVC055,0.33,VWS V14.01,2013-03-12 14:48:00,
2013-03-12 10:53:00,43.0,41.4,29.90,NE,47,2.0,9.0,94,0.00,,OVC055,0.33,VWS V14.01,2013-03-12 14:53:00,
2013-03-12 10:58:00,43.3,41.7,29.90,ENE,69,4.0,9.0,94,0.00,,OVC055,0.33,VWS V14.01,2013-03-12 14:58:00,
2013-03-12 11:00:00,43.3,41.4,29.90,ENE,71,2.0,9.0,93,0.00,,OVC055,0.33,VWS V14.01,2013-03-12 15:00:00,
2013-03-12 11:03:00,43.3,41.4,29.90,ENE,58,2.0,4.0,93,0.00,,OVC055,0.33,VWS V14.01,2013-03-12 15:03:00,
2013-03-12 11:08:00,43.6,41.7,29.90,NE,53,2.0,6.0,93,0.00,,OVC055,0.33,VWS V14.01,2013-03-12 15:08:00,
2013-03-12 11:13:00,44.0,42.1,29.90,NE,46,2.0,6.0,93,0.00,,OVC055,0.33,VWS V14.01,2013-03-12 15:13:00,
2013-03-12 11:18:00,44.3,42.4,29.90,NNE,18,2.0,6.0,93,0.00,,OVC055,0.33,VWS V14.01,2013-03-12 15:18:00,
2013-03-12 11:23:00,44.9,42.7,29.90,ENE,70,1.0,6.0,92,0.00,,OVC055,0.33,VWS V14.01,2013-03-12 15:23:00,
2013-03-12 11:28:00,45.4,42.9,29.90,SE,145,4.0,6.0,91,0.00,,OVC055,0.33,VWS V14.01,2013-03-12 15:28:00,
2013-03-12 11:30:00,45.5,43.0,29.90,SE,145,0.0,6.0,91,0.00,,OVC055,0.33,VWS V14.01,2013-03-12 15:30:00,
2013-03-12 11:33:00,46.0,43.2,29.90,NNE,16,6.0,7.0,90,0.00,,OVC055,0.33,VWS V14.01,2013-03-12 15:33:00,
2013-03-12 11:38:00,45.6,42.8,29.91,NE,42,4.0,9.0,90,0.00,,OVC055,0.33,VWS V14.01,2013-03-12 15:38:00,
2013-03-12 11:43:00,45.8,43.3,29.90,North,355,2.0,9.0,91,0.00,,OVC055,0.33,VWS V14.01,2013-03-12 15:43:00,
2013-03-12 11:48:00,46.4,43.6,29.90,NE,34,2.0,9.0,90,0.00,,OVC055,0.33,VWS V14.01,2013-03-12 15:48:00,
2013-03-12 11:53:00,47.0,43.6,29.90,North,5,3.0,9.0,88,0.00,,OVC055,0.33,VWS V14.01,2013-03-12 15:53:00,
2013-03-12 11:58:00,47.8,44.4,29.90,North,355,2.0,9.0,88,0.00,,OVC055,0.33,VWS V14.01,2013-03-12 15:58:00,
2013-03-12 12:00:00,47.9,44.5,29.90,NNE,17,3.0,9.0,88,0.00,,OVC055,0.33,VWS V14.01,2013-03-12 16:00:00,
2013-03-12 12:03:00,48.4,44.4,29.90,ENE,61,3.0,5.0,86,0.00,,OVC055,0.33,VWS V14.01,2013-03-12 16:03:00,
2013-03-12 12:08:00,48.9,44.3,29.90,NNE,28,4.0,5.0,84,0.00,,OVC055,0.33,VWS V14.01,2013-03-12 16:08:00,
2013-03-12 12:13:00,49.0,44.1,29.90,NE,39,7.0,8.0,83,0.00,,OVC055,0.33,VWS V14.01,2013-03-12 16:13:00,
2013-03-12 12:18:00,49.2,44.3,29.90,NNE,18,6.0,8.0,83,0.00,,OVC055,0.33,VWS V14.01,2013-03-12 16:18:00,
2013-03-12 12:23:00,49.6,44.3,29.90,NE,40,3.0,8.0,82,0.00,,OVC055,0.33,VWS V14.01,2013-03-12 16:23:00,
2013-03-12 12:28:00,50.2,45.2,29.90,North,5,5.0,8.0,83,0.00,,OVC055,0.33,VWS V14.01,2013-03-12 16:28:00,
2013-03-12 12:30:00,50.3,45.7,29.90,NNE,26,8.0,9.0,84,0.00,,OVC055,0.33,VWS V14.01,2013-03-12 16:30:00,
2013-03-12 12:33:00,50.1,44.2,29.91,North,5,3.0,9.0,80,0.00,,OVC055,0.33,VWS V14.01,2013-03-12 16:33:00,
2013-03-12 12:38:00,50.3,43.7,29.91,NNW,338,2.0,9.0,78,0.00,,OVC055,0.33,VWS V14.01,2013-03-12 16:38:00,
2013-03-12 12:43:00,50.7,44.4,29.92,North,5,6.0,9.0,79,0.00,,OVC055,0.33,VWS V14.01,2013-03-12 16:43:00,
2013-03-12 12:48:00,50.7,44.1,29.91,NNE,13,6.0,9.0,78,0.00,,OVC055,0.33,VWS V14.01,2013-03-12 16:48:00,
2013-03-12 12:53:00,50.8,43.9,29.91,North,360,5.0,9.0,77,0.00,,OVC055,0.33,VWS V14.01,2013-03-12 16:53:00,
2013-03-12 12:58:00,51.0,43.7,29.91,North,360,3.0,9.0,76,0.00,,OVC055,0.33,VWS V14.01,2013-03-12 16:58:00,
2013-03-12 13:00:00,51.1,43.8,29.91,North,11,4.0,9.0,76,0.00,,OVC055,0.33,VWS V14.01,2013-03-12 17:00:00,
2013-03-12 13:03:00,51.7,45.1,29.91,North,360,5.0,6.0,78,0.00,,OVC055,0.33,VWS V14.01,2013-03-12 17:03:00,
2013-03-12 13:08:00,52.1,43.7,29.91,North,360,3.0,6.0,73,0.00,,OVC055,0.33,VWS V14.01,2013-03-12 17:08:00,
2013-03-12 13:13:00,52.6,43.8,29.91,NNW,342,4.0,7.0,72,0.00,,OVC055,0.33,VWS V14.01,2013-03-12 17:13:00,
2013-03-12 13:18:00,53.2,44.4,29.91,NE,50,2.0,7.0,72,0.00,,OVC055,0.33,VWS V14.01,2013-03-12 17:18:00,
2013-03-12 13:23:00,53.4,43.1,29.91,NNE,22,0.0,7.0,68,0.00,,OVC055,0.33,VWS V14.01,2013-03-12 17:23:00,
2013-03-12 13:28:00,54.2,44.6,29.91,NNE,12,6.0,8.0,70,0.00,,OVC055,0.33,VWS V14.01,2013-03-12 17:28:00,
2013-03-12 13:30:00,54.2,44.6,29.91,North,5,5.0,8.0,70,0.00,,OVC055,0.33,VWS V14.01,2013-03-12 17:30:00,
2013-03-12 13:33:00,53.8,43.1,29.91,NNE,26,2.0,7.0,67,0.00,,OVC055,0.33,VWS V14.01,2013-03-12 17:33:00,
2013-03-12 13:38:00,53.9,42.4,29.91,NNE,22,4.0,7.0,65,0.00,,OVC055,0.33,VWS V14.01,2013-03-12 17:38:00,
2013-03-12 13:43:00,54.1,42.2,29.91,North,355,4.0,8.0,64,0.00,,OVC055,0.33,VWS V14.01,2013-03-12 17:43:00,
2013-03-12 13:48:00,54.3,41.6,29.90,North,350,0.0,8.0,62,0.00,,OVC055,0.33,VWS V14.01,2013-03-12 17:48:00,
2013-03-12 13:53:00,55.2,42.8,29.91,North,9,5.0,8.0,63,0.00,,OVC055,0.33,VWS V14.01,2013-03-12 17:53:00,
2013-03-12 13:58:00,55.4,43.4,29.90,NNE,14,4.0,8.0,64,0.00,,OVC055,0.33,VWS V14.01,2013-03-12 17:58:00,
2013-03-12 14:00:00,55.5,43.5,29.90,NE,36,2.0,8.0,64,0.00,,OVC055,0.33,VWS V14.01,2013-03-12 18:00:00,
2013-03-12 14:03:00,55.8,44.2,29.90,NNE,13,3.0,6.0,65,0.00,,OVC055,0.33,VWS V14.01,2013-03-12 18:03:00,
2013-03-12 14:08:00,55.8,42.1,29.90,NNE,32,5.0,7.0,60,0.00,,OVC055,0.33,VWS V14.01,2013-03-12 18:08:00,
2013-03-12 14:13:00,55.4,41.8,29.90,North,9,4.0,7.0,60,0.00,,OVC055,0.33,VWS V14.01,2013-03-12 18:13:00,
2013-03-12 14:18:00,55.7,42.0,29.90,NNW,348,4.0,7.0,60,0.00,,OVC055,0.33,VWS V14.01,2013-03-12 18:18:00,
2013-03-12 14:23:00,56.0,44.8,29.90,NNE,18,5.0,7.0,66,0.00,,OVC055,0.33,VWS V14.01,2013-03-12 18:23:00,
2013-03-12 14:28:00,56.6,43.3,29.90,North,355,6.0,9.0,61,0.00,,OVC055,0.33,VWS V14.01,2013-03-12 18:28:00,
2013-03-12 14:30:00,56.6,42.9,29.90,North,5,5.0,9.0,60,0.00,,OVC055,0.33,VWS V14.01,2013-03-12 18:30:00,
2013-03-12 14:33:00,56.7,44.3,29.90,NNE,17,4.0,7.0,63,0.00,,OVC055,0.33,VWS V14.01,2013-03-12 18:33:00,
2013-03-12 14:38:00,56.7,42.1,29.90,NE,47,5.0,9.0,58,0.00,,OVC055,0.33,VWS V14.01,2013-03-12 18:38:00,
2013-03-12 14:43:00,56.4,41.8,29.90,NNE,19,4.0,10.0,58,0.00,,OVC055,0.33,VWS V14.01,2013-03-12 18:43:00,
2013-03-12 14:48:00,56.7,44.7,29.90,NE,36,7.0,10.0,64,0.00,,OVC055,0.33,VWS V14.01,2013-03-12 18:48:00,
2013-03-12 14:53:00,56.6,44.6,29.90,North,355,7.0,10.0,64,0.00,,OVC055,0.33,VWS V14.01,2013-03-12 18:53:00,
2013-03-12 14:58:00,56.5,43.7,29.90,NE,42,4.0,10.0,62,0.00,,OVC055,0.33,VWS V14.01,2013-03-12 18:58:00,
2013-03-12 15:00:00,56.6,44.6,29.90,NE,48,5.0,10.0,64,0.00,,OVC055,0.33,VWS V14.01,2013-03-12 19:00:00,
2013-03-12 15:03:00,56.7,43.4,29.89,ENE,63,5.0,7.0,61,0.00,,OVC055,0.33,VWS V14.01,2013-03-12 19:03:00,
2013-03-12 15:08:00,56.5,41.5,29.89,NE,35,5.0,9.0,57,0.00,,OVC055,0.33,VWS V14.01,2013-03-12 19:08:00,
2013-03-12 15:13:00,56.2,43.4,29.89,NNE,24,4.0,9.0,62,0.00,,OVC055,0.33,VWS V14.01,2013-03-12 19:13:00,
2013-03-12 15:18:00,55.9,41.8,29.89,ENE,61,5.0,13.0,59,0.00,,OVC055,0.33,VWS V14.01,2013-03-12 19:18:00,
2013-03-12 15:23:00,55.4,39.5,29.89,NNE,29,4.0,13.0,55,0.00,,OVC055,0.33,VWS V14.01,2013-03-12 19:23:00,
2013-03-12 15:28:00,55.5,41.9,29.89,NNE,26,8.0,13.0,60,0.00,,OVC055,0.33,VWS V14.01,2013-03-12 19:28:00,
2013-03-12 15:30:00,55.5,42.3,29.89,NNE,22,7.0,13.0,61,0.00,,OVC055,0.33,VWS V14.01,2013-03-12 19:30:00,
2013-03-12 15:33:00,55.5,42.3,29.90,NNE,26,11.0,11.0,61,0.00,,OVC055,0.33,VWS V14.01,2013-03-12 19:33:00,
2013-03-12 15:38:00,55.4,42.2,29.89,NNE,21,8.0,12.0,61,0.00,,OVC055,0.33,VWS V14.01,2013-03-12 19:38:00,
2013-03-12 15:43:00,55.3,42.1,29.89,NE,45,9.0,12.0,61,0.00,,OVC055,0.33,VWS V14.01,2013-03-12 19:43:00,
2013-03-12 15:48:00,55.4,43.0,29.89,NE,36,9.0,12.0,63,0.00,,OVC055,0.33,VWS V14.01,2013-03-12 19:48:00,
2013-03-12 15:53:00,55.3,41.7,29.89,NNE,26,9.0,12.0,60,0.00,,OVC055,0.33,VWS V14.01,2013-03-12 19:53:00,
2013-03-12 15:58:00,54.8,41.2,29.89,NE,46,5.0,12.0,60,0.00,,OVC055,0.33,VWS V14.01,2013-03-12 19:58:00,
2013-03-12 16:00:00,54.7,41.1,29.89,ENE,59,5.0,12.0,60,0.00,,OVC055,0.33,VWS V14.01,2013-03-12 20:00:00,
2013-03-12 16:03:00,54.5,42.2,29.89,North,5,8.0,12.0,63,0.00,,OVC055,0.33,VWS V14.01,2013-03-12 20:03:00,
2013-03-12 16:08:00,54.5,42.2,29.89,NNE,32,4.0,12.0,63,0.00,,OVC055,0.33,VWS V14.01,2013-03-12 20:08:00,
2013-03-12 16:13:00,54.1,40.5,29.90,ENE,65,7.0,12.0,60,0.00,,OVC055,0.33,VWS V14.01,2013-03-12 20:13:00,
2013-03-12 16:18:00,53.8,41.9,29.90,NNE,25,12.0,13.0,64,0.00,,OVC055,0.33,VWS V14.01,2013-03-12 20:18:00,
2013-03-12 16:23:00,53.5,42.0,29.90,NNE,24,6.0,13.0,65,0.00,,OVC055,0.33,VWS V14.01,2013-03-12 20:23:00,
2013-03-12 16:28:00,53.3,40.6,29.90,NE,52,6.0,13.0,62,0.00,,OVC055,0.33,VWS V14.01,2013-03-12 20:28:00,
2013-03-12 16:30:00,53.3,41.0,29.90,ENE,59,12.0,13.0,63,0.00,,OVC055,0.33,VWS V14.01,2013-03-12 20:30:00,
2013-03-12 16:33:00,53.1,40.8,29.90,NNE,25,6.0,12.0,63,0.00,,OVC055,0.33,VWS V14.01,2013-03-12 20:33:00,
2013-03-12 16:38:00,53.3,41.8,29.90,NE,46,5.0,13.0,65,0.00,,OVC055,0.33,VWS V14.01,2013-03-12 20:38:00,
2013-03-12 16:43:00,53.3,41.5,29.90,NE,36,5.0,13.0,64,0.00,,OVC055,0.33,VWS V14.01,2013-03-12 20:43:00,
2013-03-12 16:48:00,53.2,40.5,29.90,NE,38,7.0,13.0,62,0.00,,OVC055,0.33,VWS V14.01,2013-03-12 20:48:00,
2013-03-12 16:53:00,53.2,40.5,29.91,NE,47,8.0,13.0,62,0.00,,OVC055,0.33,VWS V14.01,2013-03-12 20:53:00,
2013-03-12 16:58:00,52.9,40.2,29.90,ENE,76,0.0,13.0,62,0.00,,OVC055,0.33,VWS V14.01,2013-03-12 20:58:00,
2013-03-12 17:00:00,52.9,41.1,29.90,ENE,72,5.0,13.0,64,0.00,,OVC055,0.33,VWS V14.01,2013-03-12 21:00:00,
2013-03-12 17:03:00,53.2,41.0,29.90,ENE,60,2.0,5.0,63,0.00,,OVC055,0.33,VWS V14.01,2013-03-12 21:03:00,
2013-03-12 17:08:00,53.5,40.4,29.90,ENE,74,2.0,8.0,61,0.00,,OVC055,0.33,VWS V14.01,2013-03-12 21:08:00,
2013-03-12 17:13:00,53.5,40.0,29.90,ENE,62,1.0,9.0,60,0.00,,OVC055,0.33,VWS V14.01,2013-03-12 21:13:00,
2013-03-12 17:18:00,53.4,39.5,29.90,NE,51,4.0,9.0,59,0.00,,OVC055,0.33,VWS V14.01,2013-03-12 21:18:00,
2013-03-12 17:23:00,53.5,40.4,29.91,NE,45,4.0,9.0,61,0.00,,OVC055,0.33,VWS V14.01,2013-03-12 21:23:00,
2013-03-12 17:28:00,53.4,39.9,29.91,NE,52,3.0,9.0,60,0.00,,OVC055,0.33,VWS V14.01,2013-03-12 21:28:00,
2013-03-12 17:30:00,53.4,39.5,29.91,NE,42,6.0,9.0,59,0.00,,OVC055,0.33,VWS V14.01,2013-03-12 21:30:00,
2013-03-12 17:33:00,53.2,39.3,29.90,NE,36,3.0,8.0,59,0.00,,OVC055,0.33,VWS V14.01,2013-03-12 21:33:00,
2013-03-12 17:38:00,53.4,39.9,29.91,NE,55,4.0,8.0,60,0.00,,OVC055,0.33,VWS V14.01,2013-03-12 21:38:00,
2013-03-12 17:43:00,53.4,39.9,29.90,NE,37,5.0,9.0,60,0.00,,OVC055,0.33,VWS V14.01,2013-03-12 21:43:00,
2013-03-12 17:48:00,53.3,39.8,29.91,NE,40,9.0,9.0,60,0.00,,OVC055,0.33,VWS V14.01,2013-03-12 21:48:00,
2013-03-12 17:53:00,52.9,39.0,29.91,ENE,68,4.0,9.0,59,0.00,,OVC055,0.33,VWS V14.01,2013-03-12 21:53:00,
2013-03-12 17:58:00,52.9,39.0,29.91,NNW,340,8.0,9.0,59,0.00,,OVC055,0.33,VWS V14.01,2013-03-12 21:58:00,
2013-03-12 18:00:00,52.9,39.0,29.91,NNE,32,6.0,9.0,59,0.00,,OVC055,0.33,VWS V14.01,2013-03-12 22:00:00,
2013-03-12 18:03:00,52.7,38.3,29.92,NNE,28,3.0,9.0,58,0.00,,OVC055,0.33,VWS V14.01,2013-03-12 22:03:00,
2013-03-12 18:08:00,52.7,38.8,29.92,NNE,13,2.0,9.0,59,0.00,,OVC055,0.33,VWS V14.01,2013-03-12 22:08:00,
2013-03-12 18:13:00,52.7,39.2,29.92,ENE,57,0.0,9.0,60,0.00,,OVC055,0.33,VWS V14.01,2013-03-12 22:13:00,
2013-03-12 18:18:00,52.7,39.6,29.92,NE,38,1.0,9.0,61,0.00,,OVC055,0.33,VWS V14.01,2013-03-12 22:18:00,
2013-03-12 18:23:00,52.4,38.5,29.93,NE,46,1.0,9.0,59,0.00,,OVC055,0.33,VWS V14.01,2013-03-12 22:23:00,
2013-03-12 18:28:00,52.2,38.3,29.92,NE,54,2.0,9.0,59,0.00,,OVC055,0.33,VWS V14.01,2013-03-12 22:28:00,
2013-03-12 18:30:00,52.2,38.3,29.92,NE,54,1.0,9.0,59,0.00,,OVC055,0.33,VWS V14.01,2013-03-12 22:30:00,
2013-03-12 18:33:00,51.9,38.9,29.93,NE,54,2.0,5.0,61,0.00,,OVC055,0.33,VWS V14.01,2013-03-12 22:33:00,
2013-03-12 18:38:00,51.6,37.8,29.93,NE,46,5.0,7.0,59,0.00,,OVC055,0.33,VWS V14.01,2013-03-12 22:38:00,
2013-03-12 18:43:00,51.4,37.6,29.94,ENE,74,4.0,7.0,59,0.00,,OVC055,0.33,VWS V14.01,2013-03-12 22:43:00,
2013-03-12 18:48:00,51.1,37.7,29.94,NE,52,3.0,7.0,60,0.00,,OVC055,0.33,VWS V14.01,2013-03-12 22:48:00,
2013-03-12 18:53:00,50.8,37.0,29.95,NE,39,3.0,7.0,59,0.00,,OVC055,0.33,VWS V14.01,2013-03-12 22:53:00,
2013-03-12 18:58:00,50.4,36.6,29.95,ENE,63,1.0,7.0,59,0.00,,OVC055,0.33,VWS V14.01,2013-03-12 22:58:00,
2013-03-12 19:00:00,50.4,37.0,29.95,ENE,63,1.0,7.0,60,0.00,,OVC055,0.33,VWS V14.01,2013-03-12 23:00:00,
2013-03-12 19:03:00,50.1,37.2,29.95,ENE,63,1.0,5.0,61,0.00,,OVC055,0.33,VWS V14.01,2013-03-12 23:03:00,
2013-03-12 19:08:00,49.7,37.6,29.95,NE,55,0.0,5.0,63,0.00,,OVC055,0.33,VWS V14.01,2013-03-12 23:08:00,
2013-03-12 19:13:00,49.2,37.2,29.96,NE,55,0.0,5.0,63,0.00,,OVC055,0.33,VWS V14.01,2013-03-12 23:13:00,
2013-03-12 19:18:00,48.8,36.0,29.96,ENE,59,1.0,5.0,61,0.00,,OVC055,0.33,VWS V14.01,2013-03-12 23:18:00,
2013-03-12 19:23:00,48.5,36.1,29.97,ENE,58,0.0,5.0,62,0.00,,OVC055,0.33,VWS V14.01,2013-03-12 23:23:00,
2013-03-12 19:28:00,48.2,36.2,29.97,NE,46,1.0,5.0,63,0.00,,OVC055,0.33,VWS V14.01,2013-03-12 23:28:00,
2013-03-12 19:30:00,48.2,36.6,29.97,NE,46,0.0,5.0,64,0.00,,OVC055,0.33,VWS V14.01,2013-03-12 23:30:00,
2013-03-12 19:33:00,47.8,35.8,29.97,NE,56,2.0,4.0,63,0.00,,OVC055,0.33,VWS V14.01,2013-03-12 23:33:00,
2013-03-12 19:38:00,47.6,36.4,29.98,NE,56,1.0,4.0,65,0.00,,OVC055,0.33,VWS V14.01,2013-03-12 23:38:00,
2013-03-12 19:43:00,47.1,36.0,29.97,NNE,30,2.0,4.0,65,0.00,,OVC055,0.33,VWS V14.01,2013-03-12 23:43:00,
2013-03-12 19:48:00,46.8,36.4,29.98,NE,51,0.0,5.0,67,0.00,,OVC055,0.33,VWS V14.01,2013-03-12 23:48:00,
2013-03-12 19:53:00,46.4,35.7,29.98,NE,51,3.0,5.0,66,0.00,,OVC055,0.33,VWS V14.01,2013-03-12 23:53:00,
2013-03-12 19:58:00,46.1,35.8,29.98,NE,48,3.0,5.0,67,0.00,,OVC055,0.33,VWS V14.01,2013-03-12 23:58:00,
2013-03-12 20:00:00,46.1,35.4,29.98,NE,48,1.0,5.0,66,0.00,,OVC055,0.33,VWS V14.01,2013-03-13 00:00:00,
2013-03-12 20:03:00,45.8,35.5,29.98,East,98,1.0,3.0,67,0.00,,OVC055,0.33,VWS V14.01,2013-03-13 00:03:00,
2013-03-12 20:08:00,45.5,35.6,29.99,ENE,65,1.0,3.0,68,0.00,,OVC055,0.33,VWS V14.01,2013-03-13 00:08:00,
2013-03-12 20:13:00,45.7,35.0,29.99,NE,47,1.0,7.0,66,0.00,,OVC055,0.33,VWS V14.01,2013-03-13 00:13:00,
2013-03-12 20:18:00,45.7,35.8,29.99,NE,46,0.0,7.0,68,0.00,,OVC055,0.33,VWS V14.01,2013-03-13 00:18:00,
2013-03-12 20:23:00,45.5,34.8,29.99,ENE,65,0.0,7.0,66,0.00,,OVC055,0.33,VWS V14.01,2013-03-13 00:23:00,
2013-03-12 20:28:00,45.2,35.3,30.00,ENE,65,0.0,7.0,68,0.00,,OVC055,0.33,VWS V14.01,2013-03-13 00:28:00,
2013-03-12 20:30:00,45.2,35.3,30.00,ENE,65,1.0,7.0,68,0.00,,OVC055,0.33,VWS V14.01,2013-03-13 00:30:00,
2013-03-12 20:33:00,44.7,35.2,30.00,North,350,1.0,3.0,69,0.00,,OVC055,0.33,VWS V14.01,2013-03-13 00:33:00,
2013-03-12 20:38:00,44.4,34.9,30.00,North,350,1.0,3.0,69,0.00,,OVC055,0.33,VWS V14.01,2013-03-13 00:38:00,
2013-03-12 20:43:00,44.1,35.0,30.00,North,350,0.0,3.0,70,0.00,,OVC055,0.33,VWS V14.01,2013-03-13 00:43:00,
2013-03-12 20:48:00,43.7,34.6,30.00,North,350,0.0,3.0,70,0.00,,OVC055,0.33,VWS V14.01,2013-03-13 00:48:00,
2013-03-12 20:53:00,43.3,34.5,30.00,North,350,0.0,3.0,71,0.00,,OVC055,0.33,VWS V14.01,2013-03-13 00:53:00,
2013-03-12 20:58:00,43.0,34.2,30.00,North,350,1.0,3.0,71,0.00,,OVC055,0.33,VWS V14.01,2013-03-13 00:58:00,
2013-03-12 21:00:00,43.0,34.2,30.00,North,350,0.0,3.0,71,0.00,,OVC055,0.33,VWS V14.01,2013-03-13 01:00:00,
2013-03-12 21:03:00,42.9,34.2,30.00,North,350,0.0,1.0,71,0.00,,OVC055,0.33,VWS V14.01,2013-03-13 01:03:00,
2013-03-12 21:08:00,42.7,34.0,30.00,North,350,0.0,1.0,71,0.00,,OVC055,0.33,VWS V14.01,2013-03-13 01:08:00,
2013-03-12 21:13:00,42.5,34.1,30.01,North,350,0.0,1.0,72,0.00,,OVC055,0.33,VWS V14.01,2013-03-13 01:13:00,
2013-03-12 21:18:00,42.3,34.3,30.01,North,350,0.0,3.0,73,0.00,,OVC055,0.33,VWS V14.01,2013-03-13 01:18:00,
2013-03-12 21:23:00,42.2,34.2,30.01,North,350,0.0,3.0,73,0.00,,OVC055,0.33,VWS V14.01,2013-03-13 01:23:00,
2013-03-12 21:28:00,42.0,34.0,30.01,North,350,1.0,3.0,73,0.00,,OVC055,0.33,VWS V14.01,2013-03-13 01:28:00,
2013-03-12 21:30:00,42.0,34.0,30.01,North,350,0.0,3.0,73,0.00,,OVC055,0.33,VWS V14.01,2013-03-13 01:30:00,
2013-03-12 21:33:00,41.8,33.8,30.02,North,350,0.0,2.0,73,0.00,,OVC055,0.33,VWS V14.01,2013-03-13 01:33:00,
2013-03-12 21:38:00,41.9,33.9,30.02,North,350,0.0,4.0,73,0.00,,OVC055,0.33,VWS V14.01,2013-03-13 01:38:00,
2013-03-12 21:43:00,41.6,33.6,30.02,North,350,0.0,4.0,73,0.00,,OVC055,0.33,VWS V14.01,2013-03-13 01:43:00,
2013-03-12 21:48:00,41.2,33.5,30.02,North,350,0.0,4.0,74,0.00,,OVC055,0.33,VWS V14.01,2013-03-13 01:48:00,
2013-03-12 21:53:00,40.9,33.6,30.02,North,350,0.0,4.0,75,0.00,,OVC055,0.33,VWS V14.01,2013-03-13 01:53:00,
2013-03-12 21:58:00,40.7,33.7,30.03,North,350,1.0,4.0,76,0.00,,OVC055,0.33,VWS V14.01,2013-03-13 01:58:00,
2013-03-12 22:00:00,40.6,33.6,30.03,North,350,0.0,4.0,76,0.00,,OVC055,0.33,VWS V14.01,2013-03-13 02:00:00,
2013-03-12 22:03:00,40.4,33.5,30.03,North,350,0.0,2.0,76,0.00,,OVC055,0.33,VWS V14.01,2013-03-13 02:03:00,
2013-03-12 22:08:00,40.3,33.7,30.03,North,350,1.0,2.0,77,0.00,,OVC055,0.33,VWS V14.01,2013-03-13 02:08:00,
2013-03-12 22:13:00,40.1,33.5,30.03,North,350,1.0,2.0,77,0.00,,OVC055,0.33,VWS V14.01,2013-03-13 02:13:00,
2013-03-12 22:18:00,39.8,33.5,30.03,North,350,2.0,2.0,78,0.00,,OVC055,0.33,VWS V14.01,2013-03-13 02:18:00,
2013-03-12 22:23:00,39.6,33.3,30.03,North,350,0.0,2.0,78,0.00,,OVC055,0.33,VWS V14.01,2013-03-13 02:23:00,
2013-03-12 22:28:00,39.4,33.4,30.03,North,350,0.0,2.0,79,0.00,,OVC055,0.33,VWS V14.01,2013-03-13 02:28:00,
2013-03-12 22:30:00,39.3,33.3,30.03,North,350,0.0,2.0,79,0.00,,OVC055,0.33,VWS V14.01,2013-03-13 02:30:00,
2013-03-12 22:33:00,39.1,33.8,30.03,North,350,1.0,1.0,81,0.00,,OVC055,0.33,VWS V14.01,2013-03-13 02:33:00,
2013-03-12 22:38:00,38.7,33.7,30.03,North,350,0.0,1.0,82,0.00,,OVC055,0.33,VWS V14.01,2013-03-13 02:38:00,
2013-03-12 22:43:00,38.2,33.5,30.04,North,350,0.0,1.0,83,0.00,,OVC055,0.33,VWS V14.01,2013-03-13 02:43:00,
2013-03-12 22:48:00,37.7,33.6,30.04,North,350,0.0,1.0,85,0.00,,OVC055,0.33,VWS V14.01,2013-03-13 02:48:00,
2013-03-12 22:53:00,37.4,33.6,30.04,North,350,0.0,1.0,86,0.00,,OVC055,0.33,VWS V14.01,2013-03-13 02:53:00,
2013-03-12 22:58:00,37.1,33.3,30.04,North,350,0.0,1.0,86,0.00,,OVC055,0.33,VWS V14.01,2013-03-13 02:58:00,
2013-03-12 23:00:00,37.0,33.2,30.04,North,350,0.0,1.0,86,0.00,,OVC055,0.33,VWS V14.01,2013-03-13 03:00:00,
2013-03-12 23:03:00,36.7,32.9,30.04,North,350,0.0,0.0,86,0.00,,OVC055,0.33,VWS V14.01,2013-03-13 03:03:00,
2013-03-12 23:08:00,36.3,32.5,30.04,North,350,0.0,1.0,86,0.00,,OVC055,0.33,VWS V14.01,2013-03-13 03:08:00,
2013-03-12 23:13:00,36.0,32.5,30.04,North,350,0.0,1.0,87,0.00,,OVC055,0.33,VWS V14.01,2013-03-13 03:13:00,
2013-03-12 23:18:00,35.7,32.2,30.05,North,350,0.0,1.0,87,0.00,,OVC055,0.33,VWS V14.01,2013-03-13 03:18:00,
2013-03-12 23:23:00,35.4,32.5,30.05,North,350,0.0,1.0,89,0.00,,OVC055,0.33,VWS V14.01,2013-03-13 03:23:00,
2013-03-12 23:28:00,35.2,32.6,30.05,North,350,0.0,1.0,90,0.00,,OVC055,0.33,VWS V14.01,2013-03-13 03:28:00,
2013-03-12 23:30:00,35.2,32.6,30.05,North,350,0.0,1.0,90,0.00,,OVC055,0.33,VWS V14.01,2013-03-13 03:30:00,
2013-03-12 23:33:00,35.0,32.4,30.05,North,350,0.0,1.0,90,0.00,,OVC055,0.33,VWS V14.01,2013-03-13 03:33:00,
2013-03-12 23:38:00,34.9,32.5,30.05,North,350,0.0,1.0,91,0.00,,OVC055,0.33,VWS V14.01,2013-03-13 03:38:00,
2013-03-12 23:43:00,34.7,32.1,30.05,North,350,0.0,1.0,90,0.00,,OVC055,0.33,VWS V14.01,2013-03-13 03:43:00,
2013-03-12 23:48:00,34.6,32.2,30.06,North,350,0.0,1.0,91,0.00,,OVC055,0.33,VWS V14.01,2013-03-13 03:48:00,
2013-03-12 23:53:00,34.4,32.0,30.06,North,350,0.0,1.0,91,0.00,,OVC055,0.33,VWS V14.01,2013-03-13 03:53:00,
2013-03-12 23:58:00,34.2,31.9,30.06,North,350,0.0,1.0,91,0.00,,OVC055,0.33,VWS V14.01,2013-03-13 03:58:00,